International Virtual Aviation Organisation

Russian Federation and Kazakhstan MCD

 

Карточка аэропорта UATT

Внимание!
Информация на этой странице в стадии наполнения.
Если вы не увидели какой-то информации, или заметили неточность - пожалуйста сообщите нам!
Спасибо!
Команда RU-STAFF
Название аэропортаАктобе
Название аэропорта (англ.)Aktobe
Превышение738 ft. (224.9 m.)
Координаты50°14.748', 57°12.402'
Высота перехода2710
Эшелон переходаFL40
Коды ответчика3440-3447, 3540-3547
Зона ОрВДАктобе РПИ (UATT)
Данные METARUATT 091300Z 30008MPS 9999 BKN044 23/11 Q0997 R31/70D NOSIG RMK QFE728/0971
Проноз погоды (TAF)UATT 091100Z 0912/1012 29003MPS 9999 BKN030CB TX23/0912Z TN14/1001Z TEMPO 0912/0918 29008MPS -SHRA SCT011 BKN030CB FM100000 30007MPS 3100 -SHRA BR BKN011 BKN020CB TEMPO 1004/1012 30012MPS
NOTAMshow/hide NOTAM
AWOS   TABLE

Информация о ВПП

ВПП Длина ВПП (м.) Покрытие Курс ВПП Частота ILS
133202Бетон135111.7
313202Бетон315111.7

Диспетчерские позиции




Спутниковое изображение